Year,Month,Day,Hour,Minute,Value (Times are PST for insolation in W/m^2)
2018,03,23,00,00,0.00
2018,03,23,00,01,0.00
2018,03,23,00,02,0.00
2018,03,23,00,03,0.00
2018,03,23,00,04,0.00
2018,03,23,00,05,0.00
2018,03,23,00,06,0.00
2018,03,23,00,07,0.00
2018,03,23,00,08,0.00
2018,03,23,00,09,0.00
2018,03,23,00,10,0.00
2018,03,23,00,11,0.00
2018,03,23,00,12,0.00
2018,03,23,00,13,0.00
2018,03,23,00,14,0.00
2018,03,23,00,15,0.00
2018,03,23,00,16,0.00
2018,03,23,00,17,0.00
2018,03,23,00,18,0.00
2018,03,23,00,19,0.00
2018,03,23,00,20,0.00
2018,03,23,00,21,0.00
2018,03,23,00,22,0.00
2018,03,23,00,23,0.00
2018,03,23,00,24,0.00
2018,03,23,00,25,0.00
2018,03,23,00,26,0.00
2018,03,23,00,27,0.00
2018,03,23,00,28,0.00
2018,03,23,00,29,0.00
2018,03,23,00,30,0.00
2018,03,23,00,31,0.00
2018,03,23,00,32,0.00
2018,03,23,00,33,0.00
2018,03,23,00,34,0.00
2018,03,23,00,35,0.00
2018,03,23,00,36,0.00
2018,03,23,00,37,0.00
2018,03,23,00,38,0.00
2018,03,23,00,39,0.00
2018,03,23,00,40,0.00
2018,03,23,00,41,0.00
2018,03,23,00,42,0.00
2018,03,23,00,43,0.00
2018,03,23,00,44,0.00
2018,03,23,00,45,0.00
2018,03,23,00,46,0.00
2018,03,23,00,47,0.00
2018,03,23,00,48,0.00
2018,03,23,00,49,0.00
2018,03,23,00,50,0.00
2018,03,23,00,51,0.00
2018,03,23,00,52,0.00
2018,03,23,00,53,0.00
2018,03,23,00,54,0.00
2018,03,23,00,55,0.00
2018,03,23,00,56,0.00
2018,03,23,00,57,0.00
2018,03,23,00,58,0.00
2018,03,23,00,59,0.00
2018,03,23,01,00,0.00
2018,03,23,01,01,0.00
2018,03,23,01,02,0.00
2018,03,23,01,03,0.00
2018,03,23,01,04,0.00
2018,03,23,01,05,0.00
2018,03,23,01,06,0.00
2018,03,23,01,07,0.00
2018,03,23,01,08,0.00
2018,03,23,01,09,0.00
2018,03,23,01,10,0.00
2018,03,23,01,11,0.00
2018,03,23,01,12,0.00
2018,03,23,01,13,0.00
2018,03,23,01,14,0.00
2018,03,23,01,15,0.00
2018,03,23,01,16,0.00
2018,03,23,01,17,0.00
2018,03,23,01,18,0.00
2018,03,23,01,19,0.00
2018,03,23,01,20,0.00
2018,03,23,01,21,0.00
2018,03,23,01,22,0.00
2018,03,23,01,23,0.00
2018,03,23,01,24,0.00
2018,03,23,01,25,0.00
2018,03,23,01,26,0.00
2018,03,23,01,27,0.00
2018,03,23,01,28,0.00
2018,03,23,01,29,0.00
2018,03,23,01,30,0.00
2018,03,23,01,31,0.00
2018,03,23,01,32,0.00
2018,03,23,01,33,0.00
2018,03,23,01,34,0.00
2018,03,23,01,35,0.00
2018,03,23,01,36,0.00
2018,03,23,01,37,0.00
2018,03,23,01,38,0.00
2018,03,23,01,39,0.00
2018,03,23,01,40,0.00
2018,03,23,01,41,0.00
2018,03,23,01,42,0.00
2018,03,23,01,43,0.00
2018,03,23,01,44,0.00
2018,03,23,01,45,0.00
2018,03,23,01,46,0.00
2018,03,23,01,47,0.00
2018,03,23,01,48,0.00
2018,03,23,01,49,0.00
2018,03,23,01,50,0.00
2018,03,23,01,51,0.00
2018,03,23,01,52,0.00
2018,03,23,01,53,0.00
2018,03,23,01,54,0.00
2018,03,23,01,55,0.00
2018,03,23,01,56,0.00
2018,03,23,01,57,0.00
2018,03,23,01,58,0.00
2018,03,23,01,59,0.00
2018,03,23,02,00,0.00
2018,03,23,02,01,0.00
2018,03,23,02,02,0.00
2018,03,23,02,03,0.00
2018,03,23,02,04,0.00
2018,03,23,02,05,0.00
2018,03,23,02,06,0.00
2018,03,23,02,07,0.00
2018,03,23,02,08,0.00
2018,03,23,02,09,0.00
2018,03,23,02,10,0.00
2018,03,23,02,11,0.00
2018,03,23,02,12,0.00
2018,03,23,02,13,0.00
2018,03,23,02,14,0.00
2018,03,23,02,15,0.00
2018,03,23,02,16,0.00
2018,03,23,02,17,0.00
2018,03,23,02,18,0.00
2018,03,23,02,19,0.00
2018,03,23,02,20,0.00
2018,03,23,02,21,0.00
2018,03,23,02,22,0.00
2018,03,23,02,23,0.00
2018,03,23,02,24,0.00
2018,03,23,02,25,0.00
2018,03,23,02,26,0.00
2018,03,23,02,27,0.00
2018,03,23,02,28,0.00
2018,03,23,02,29,0.00
2018,03,23,02,30,0.00
2018,03,23,02,31,0.00
2018,03,23,02,32,0.00
2018,03,23,02,33,0.00
2018,03,23,02,34,0.00
2018,03,23,02,35,0.00
2018,03,23,02,36,0.00
2018,03,23,02,37,0.00
2018,03,23,02,38,0.00
2018,03,23,02,39,0.00
2018,03,23,02,40,0.00
2018,03,23,02,41,0.00
2018,03,23,02,42,0.00
2018,03,23,02,43,0.00
2018,03,23,02,44,0.00
2018,03,23,02,45,0.00
2018,03,23,02,46,0.00
2018,03,23,02,47,0.00
2018,03,23,02,48,0.00
2018,03,23,02,49,0.00
2018,03,23,02,50,0.00
2018,03,23,02,51,0.00
2018,03,23,02,52,0.00
2018,03,23,02,53,0.00
2018,03,23,02,54,0.00
2018,03,23,02,55,0.00
2018,03,23,02,56,0.00
2018,03,23,02,57,0.00
2018,03,23,02,58,0.00
2018,03,23,02,59,0.00
2018,03,23,03,00,0.00
2018,03,23,03,01,0.00
2018,03,23,03,02,0.00
2018,03,23,03,03,0.00
2018,03,23,03,04,0.00
2018,03,23,03,05,0.00
2018,03,23,03,06,0.00
2018,03,23,03,07,0.00
2018,03,23,03,08,0.00
2018,03,23,03,09,0.00
2018,03,23,03,10,0.00
2018,03,23,03,11,0.00
2018,03,23,03,12,0.00
2018,03,23,03,13,0.00
2018,03,23,03,14,0.00
2018,03,23,03,15,0.00
2018,03,23,03,16,0.00
2018,03,23,03,17,0.00
2018,03,23,03,18,0.00
2018,03,23,03,19,0.00
2018,03,23,03,20,0.00
2018,03,23,03,21,0.00
2018,03,23,03,22,0.00
2018,03,23,03,23,0.00
2018,03,23,03,24,0.00
2018,03,23,03,25,0.00
2018,03,23,03,26,0.00
2018,03,23,03,27,0.00
2018,03,23,03,28,0.00
2018,03,23,03,29,0.00
2018,03,23,03,30,0.00
2018,03,23,03,31,0.00
2018,03,23,03,32,0.00
2018,03,23,03,33,0.00
2018,03,23,03,34,0.00
2018,03,23,03,35,0.00
2018,03,23,03,36,0.00
2018,03,23,03,37,0.00
2018,03,23,03,38,0.00
2018,03,23,03,39,0.00
2018,03,23,03,40,0.00
2018,03,23,03,41,0.00
2018,03,23,03,42,0.00
2018,03,23,03,43,0.00
2018,03,23,03,44,0.00
2018,03,23,03,45,0.00
2018,03,23,03,46,0.00
2018,03,23,03,47,0.00
2018,03,23,03,48,0.00
2018,03,23,03,49,0.00
2018,03,23,03,50,0.00
2018,03,23,03,51,0.00
2018,03,23,03,52,0.00
2018,03,23,03,53,0.00
2018,03,23,03,54,0.00
2018,03,23,03,55,0.00
2018,03,23,03,56,0.00
2018,03,23,03,57,0.00
2018,03,23,03,58,0.00
2018,03,23,03,59,0.00
2018,03,23,04,00,0.00
2018,03,23,04,01,0.00
2018,03,23,04,02,0.00
2018,03,23,04,03,0.00
2018,03,23,04,04,0.00
2018,03,23,04,05,0.00
2018,03,23,04,06,0.00
2018,03,23,04,07,0.00
2018,03,23,04,08,0.00
2018,03,23,04,09,0.00
2018,03,23,04,10,0.00
2018,03,23,04,11,0.00
2018,03,23,04,12,0.00
2018,03,23,04,13,0.00
2018,03,23,04,14,0.00
2018,03,23,04,15,0.00
2018,03,23,04,16,0.00
2018,03,23,04,17,0.00
2018,03,23,04,18,0.00
2018,03,23,04,19,0.00
2018,03,23,04,20,0.00
2018,03,23,04,21,0.00
2018,03,23,04,22,0.00
2018,03,23,04,23,0.00
2018,03,23,04,24,0.00
2018,03,23,04,25,0.00
2018,03,23,04,26,0.00
2018,03,23,04,27,0.00
2018,03,23,04,28,0.00
2018,03,23,04,29,0.00
2018,03,23,04,30,0.00
2018,03,23,04,31,0.00
2018,03,23,04,32,0.00
2018,03,23,04,33,0.00
2018,03,23,04,34,0.00
2018,03,23,04,35,0.00
2018,03,23,04,36,0.00
2018,03,23,04,37,0.00
2018,03,23,04,38,0.00
2018,03,23,04,39,0.00
2018,03,23,04,40,0.00
2018,03,23,04,41,0.00
2018,03,23,04,42,0.00
2018,03,23,04,43,0.00
2018,03,23,04,44,0.00
2018,03,23,04,45,0.00
2018,03,23,04,46,0.00
2018,03,23,04,47,0.00
2018,03,23,04,48,0.00
2018,03,23,04,49,0.00
2018,03,23,04,50,0.00
2018,03,23,04,51,0.00
2018,03,23,04,52,0.00
2018,03,23,04,53,0.00
2018,03,23,04,54,0.00
2018,03,23,04,55,0.00
2018,03,23,04,56,0.00
2018,03,23,04,57,0.00
2018,03,23,04,58,0.00
2018,03,23,04,59,0.00
2018,03,23,05,00,0.00
2018,03,23,05,01,0.00
2018,03,23,05,02,0.00
2018,03,23,05,03,0.00
2018,03,23,05,04,0.00
2018,03,23,05,05,0.00
2018,03,23,05,06,0.00
2018,03,23,05,07,0.00
2018,03,23,05,08,0.00
2018,03,23,05,09,0.00
2018,03,23,05,10,0.00
2018,03,23,05,11,0.00
2018,03,23,05,12,0.00
2018,03,23,05,13,0.00
2018,03,23,05,14,0.00
2018,03,23,05,15,0.00
2018,03,23,05,16,0.00
2018,03,23,05,17,0.00
2018,03,23,05,18,0.00
2018,03,23,05,19,0.00
2018,03,23,05,20,0.00
2018,03,23,05,21,0.00
2018,03,23,05,22,0.00
2018,03,23,05,23,0.00
2018,03,23,05,24,0.00
2018,03,23,05,25,0.00
2018,03,23,05,26,0.00
2018,03,23,05,27,0.00
2018,03,23,05,28,0.00
2018,03,23,05,29,0.00
2018,03,23,05,30,0.00
2018,03,23,05,31,0.00
2018,03,23,05,32,0.00
2018,03,23,05,33,0.00
2018,03,23,05,34,0.00
2018,03,23,05,35,0.00
2018,03,23,05,36,0.00
2018,03,23,05,37,0.00
2018,03,23,05,38,0.00
2018,03,23,05,39,0.00
2018,03,23,05,40,0.00
2018,03,23,05,41,0.00
2018,03,23,05,42,0.00
2018,03,23,05,43,0.00
2018,03,23,05,44,0.00
2018,03,23,05,45,0.00
2018,03,23,05,46,0.00
2018,03,23,05,47,0.00
2018,03,23,05,48,0.00
2018,03,23,05,49,0.00
2018,03,23,05,50,0.00
2018,03,23,05,51,0.00
2018,03,23,05,52,0.00
2018,03,23,05,53,0.00
2018,03,23,05,54,0.00
2018,03,23,05,55,0.00
2018,03,23,05,56,0.00
2018,03,23,05,57,0.00
2018,03,23,05,58,0.00
2018,03,23,05,59,0.00
2018,03,23,06,00,0.00
2018,03,23,06,01,0.00
2018,03,23,06,02,0.00
2018,03,23,06,03,0.00
2018,03,23,06,04,0.00
2018,03,23,06,05,0.00
2018,03,23,06,06,0.00
2018,03,23,06,07,0.00
2018,03,23,06,08,0.00
2018,03,23,06,09,0.00
2018,03,23,06,10,0.00
2018,03,23,06,11,0.00
2018,03,23,06,12,0.00
2018,03,23,06,13,0.00
2018,03,23,06,14,0.00
2018,03,23,06,15,0.00
2018,03,23,06,16,0.00
2018,03,23,06,17,0.00
2018,03,23,06,18,0.00
2018,03,23,06,19,0.00
2018,03,23,06,20,0.00
2018,03,23,06,21,0.00
2018,03,23,06,22,0.00
2018,03,23,06,23,0.00
2018,03,23,06,24,0.00
2018,03,23,06,25,0.00
2018,03,23,06,26,0.00
2018,03,23,06,27,0.00
2018,03,23,06,28,0.00
2018,03,23,06,29,0.00
2018,03,23,06,30,0.00
2018,03,23,06,31,0.00
2018,03,23,06,32,0.00
2018,03,23,06,33,0.00
2018,03,23,06,34,0.00
2018,03,23,06,35,0.00
2018,03,23,06,36,0.00
2018,03,23,06,37,0.00
2018,03,23,06,38,0.00
2018,03,23,06,39,0.00
2018,03,23,06,40,0.00
2018,03,23,06,41,0.00
2018,03,23,06,42,0.00
2018,03,23,06,43,0.00
2018,03,23,06,44,0.00
2018,03,23,06,45,0.00
2018,03,23,06,46,0.00
2018,03,23,06,47,0.00
2018,03,23,06,48,0.00
2018,03,23,06,49,0.00
2018,03,23,06,50,0.00
2018,03,23,06,51,0.00
2018,03,23,06,52,0.00
2018,03,23,06,53,0.00
2018,03,23,06,54,0.00
2018,03,23,06,55,0.00
2018,03,23,06,56,0.00
2018,03,23,06,57,0.00
2018,03,23,06,58,0.00
2018,03,23,06,59,0.00
2018,03,23,07,00,0.00
2018,03,23,07,01,0.00
2018,03,23,07,02,0.00
2018,03,23,07,03,0.00
2018,03,23,07,04,0.00
2018,03,23,07,05,0.00
2018,03,23,07,06,0.00
2018,03,23,07,07,0.00
2018,03,23,07,08,0.00
2018,03,23,07,09,0.00
2018,03,23,07,10,0.00
2018,03,23,07,11,0.00
2018,03,23,07,12,0.00
2018,03,23,07,13,0.00
2018,03,23,07,14,0.00
2018,03,23,07,15,2.40
2018,03,23,07,16,5.00
2018,03,23,07,17,6.10
2018,03,23,07,18,7.00
2018,03,23,07,19,8.20
2018,03,23,07,20,10.40
2018,03,23,07,21,11.00
2018,03,23,07,22,11.80
2018,03,23,07,23,13.50
2018,03,23,07,24,15.70
2018,03,23,07,25,17.70
2018,03,23,07,26,18.00
2018,03,23,07,27,19.00
2018,03,23,07,28,20.90
2018,03,23,07,29,21.20
2018,03,23,07,30,23.00
2018,03,23,07,31,23.40
2018,03,23,07,32,25.00
2018,03,23,07,33,25.20
2018,03,23,07,34,26.00
2018,03,23,07,35,26.70
2018,03,23,07,36,28.00
2018,03,23,07,37,28.80
2018,03,23,07,38,30.00
2018,03,23,07,39,31.00
2018,03,23,07,40,32.00
2018,03,23,07,41,30.90
2018,03,23,07,42,30.00
2018,03,23,07,43,30.00
2018,03,23,07,44,30.00
2018,03,23,07,45,31.50
2018,03,23,07,46,32.00
2018,03,23,07,47,36.20
2018,03,23,07,48,35.30
2018,03,23,07,49,39.80
2018,03,23,07,50,51.20
2018,03,23,07,51,65.10
2018,03,23,07,52,69.00
2018,03,23,07,53,89.00
2018,03,23,07,54,97.40
2018,03,23,07,55,96.50
2018,03,23,07,56,102.70
2018,03,23,07,57,107.30
2018,03,23,07,58,113.00
2018,03,23,07,59,112.20
2018,03,23,08,00,101.00
2018,03,23,08,01,75.00
2018,03,23,08,02,59.50
2018,03,23,08,03,62.00
2018,03,23,08,04,80.70
2018,03,23,08,05,110.50
2018,03,23,08,06,125.20
2018,03,23,08,07,117.70
2018,03,23,08,08,94.50
2018,03,23,08,09,110.40
2018,03,23,08,10,104.70
2018,03,23,08,11,82.40
2018,03,23,08,12,61.90
2018,03,23,08,13,58.10
2018,03,23,08,14,60.10
2018,03,23,08,15,63.00
2018,03,23,08,16,64.40
2018,03,23,08,17,80.40
2018,03,23,08,18,89.00
2018,03,23,08,19,65.00
2018,03,23,08,20,70.10
2018,03,23,08,21,88.70
2018,03,23,08,22,94.40
2018,03,23,08,23,83.90
2018,03,23,08,24,81.00
2018,03,23,08,25,83.60
2018,03,23,08,26,90.90
2018,03,23,08,27,113.00
2018,03,23,08,28,125.00
2018,03,23,08,29,119.20
2018,03,23,08,30,108.00
2018,03,23,08,31,109.60
2018,03,23,08,32,118.30
2018,03,23,08,33,124.20
2018,03,23,08,34,120.50
2018,03,23,08,35,116.40
2018,03,23,08,36,118.00
2018,03,23,08,37,114.00
2018,03,23,08,38,113.00
2018,03,23,08,39,112.70
2018,03,23,08,40,110.60
2018,03,23,08,41,109.00
2018,03,23,08,42,108.00
2018,03,23,08,43,103.50
2018,03,23,08,44,98.10
2018,03,23,08,45,93.50
2018,03,23,08,46,90.60
2018,03,23,08,47,89.10
2018,03,23,08,48,89.00
2018,03,23,08,49,90.00
2018,03,23,08,50,91.70
2018,03,23,08,51,93.00
2018,03,23,08,52,91.70
2018,03,23,08,53,92.40
2018,03,23,08,54,98.20
2018,03,23,08,55,115.00
2018,03,23,08,56,112.70
2018,03,23,08,57,98.40
2018,03,23,08,58,97.90
2018,03,23,08,59,112.30
2018,03,23,09,00,136.60
2018,03,23,09,01,187.20
2018,03,23,09,02,234.00
2018,03,23,09,03,264.50
2018,03,23,09,04,265.10
2018,03,23,09,05,257.80
2018,03,23,09,06,249.40
2018,03,23,09,07,226.30
2018,03,23,09,08,242.30
2018,03,23,09,09,282.90
2018,03,23,09,10,310.30
2018,03,23,09,11,316.50
2018,03,23,09,12,303.50
2018,03,23,09,13,299.50
2018,03,23,09,14,309.40
2018,03,23,09,15,316.20
2018,03,23,09,16,329.40
2018,03,23,09,17,332.60
2018,03,23,09,18,324.10
2018,03,23,09,19,322.00
2018,03,23,09,20,296.50
2018,03,23,09,21,301.00
2018,03,23,09,22,317.20
2018,03,23,09,23,310.90
2018,03,23,09,24,309.60
2018,03,23,09,25,317.70
2018,03,23,09,26,338.30
2018,03,23,09,27,326.00
2018,03,23,09,28,327.00
2018,03,23,09,29,323.30
2018,03,23,09,30,272.30
2018,03,23,09,31,275.10
2018,03,23,09,32,290.40
2018,03,23,09,33,296.00
2018,03,23,09,34,330.30
2018,03,23,09,35,349.40
2018,03,23,09,36,336.00
2018,03,23,09,37,306.40
2018,03,23,09,38,269.30
2018,03,23,09,39,306.40
2018,03,23,09,40,369.30
2018,03,23,09,41,374.20
2018,03,23,09,42,337.80
2018,03,23,09,43,331.70
2018,03,23,09,44,335.60
2018,03,23,09,45,387.40
2018,03,23,09,46,403.00
2018,03,23,09,47,404.50
2018,03,23,09,48,422.60
2018,03,23,09,49,447.10
2018,03,23,09,50,454.00
2018,03,23,09,51,462.00
2018,03,23,09,52,457.80
2018,03,23,09,53,448.00
2018,03,23,09,54,448.00
2018,03,23,09,55,456.60
2018,03,23,09,56,465.40
2018,03,23,09,57,452.00
2018,03,23,09,58,451.40
2018,03,23,09,59,454.00
2018,03,23,10,00,440.10
2018,03,23,10,01,453.50
2018,03,23,10,02,464.00
2018,03,23,10,03,504.70
2018,03,23,10,04,513.60
2018,03,23,10,05,491.80
2018,03,23,10,06,473.30
2018,03,23,10,07,458.40
2018,03,23,10,08,441.80
2018,03,23,10,09,452.50
2018,03,23,10,10,463.40
2018,03,23,10,11,477.70
2018,03,23,10,12,434.60
2018,03,23,10,13,439.00
2018,03,23,10,14,437.00
2018,03,23,10,15,421.80
2018,03,23,10,16,441.50
2018,03,23,10,17,443.90
2018,03,23,10,18,399.60
2018,03,23,10,19,409.50
2018,03,23,10,20,454.50
2018,03,23,10,21,482.50
2018,03,23,10,22,519.90
2018,03,23,10,23,543.90
2018,03,23,10,24,548.70
2018,03,23,10,25,532.30
2018,03,23,10,26,526.00
2018,03,23,10,27,526.00
2018,03,23,10,28,567.70
2018,03,23,10,29,573.30
2018,03,23,10,30,590.10
2018,03,23,10,31,589.10
2018,03,23,10,32,570.00
2018,03,23,10,33,517.80
2018,03,23,10,34,573.00
2018,03,23,10,35,550.90
2018,03,23,10,36,457.00
2018,03,23,10,37,496.30
2018,03,23,10,38,620.50
2018,03,23,10,39,622.60
2018,03,23,10,40,632.30
2018,03,23,10,41,635.20
2018,03,23,10,42,634.80
2018,03,23,10,43,634.90
2018,03,23,10,44,641.30
2018,03,23,10,45,641.20
2018,03,23,10,46,646.80
2018,03,23,10,47,618.50
2018,03,23,10,48,558.60
2018,03,23,10,49,535.50
2018,03,23,10,50,457.10
2018,03,23,10,51,439.00
2018,03,23,10,52,276.10
2018,03,23,10,53,251.70
2018,03,23,10,54,276.70
2018,03,23,10,55,291.40
2018,03,23,10,56,539.70
2018,03,23,10,57,489.00
2018,03,23,10,58,489.00
2018,03,23,10,59,515.60
2018,03,23,11,00,628.20
2018,03,23,11,01,641.90
2018,03,23,11,02,633.50
2018,03,23,11,03,640.60
2018,03,23,11,04,622.80
2018,03,23,11,05,612.80
2018,03,23,11,06,631.00
2018,03,23,11,07,631.00
2018,03,23,11,08,379.00
2018,03,23,11,09,227.90
2018,03,23,11,10,237.00
2018,03,23,11,11,237.00
2018,03,23,11,12,546.80
2018,03,23,11,13,650.00
2018,03,23,11,14,318.90
2018,03,23,11,15,237.60
2018,03,23,11,16,254.10
2018,03,23,11,17,278.00
2018,03,23,11,18,321.70
2018,03,23,11,19,357.50
2018,03,23,11,20,362.00
2018,03,23,11,21,430.00
2018,03,23,11,22,718.50
2018,03,23,11,23,713.50
2018,03,23,11,24,691.30
2018,03,23,11,25,665.00
2018,03,23,11,26,652.50
2018,03,23,11,27,636.90
2018,03,23,11,28,655.30
2018,03,23,11,29,659.00
2018,03,23,11,30,644.80
2018,03,23,11,31,658.40
2018,03,23,11,32,653.30
2018,03,23,11,33,622.30
2018,03,23,11,34,680.60
2018,03,23,11,35,714.90
2018,03,23,11,36,717.00
2018,03,23,11,37,388.00
2018,03,23,11,38,330.00
2018,03,23,11,39,723.60
2018,03,23,11,40,724.00
2018,03,23,11,41,675.80
2018,03,23,11,42,652.40
2018,03,23,11,43,656.00
2018,03,23,11,44,656.00
2018,03,23,11,45,619.80
2018,03,23,11,46,466.00
2018,03,23,11,47,466.00
2018,03,23,11,48,466.00
2018,03,23,11,49,402.00
2018,03,23,11,50,306.00
2018,03,23,11,51,421.30
2018,03,23,11,52,580.00
2018,03,23,11,53,587.20
2018,03,23,11,54,563.50
2018,03,23,11,55,534.20
2018,03,23,11,56,531.70
2018,03,23,11,57,595.60
2018,03,23,11,58,627.00
2018,03,23,11,59,671.40
2018,03,23,12,00,670.70
2018,03,23,12,01,669.80
2018,03,23,12,02,633.10
2018,03,23,12,03,626.10
2018,03,23,12,04,643.00
2018,03,23,12,05,667.50
2018,03,23,12,06,653.20
2018,03,23,12,07,595.90
2018,03,23,12,08,592.00
2018,03,23,12,09,611.40
2018,03,23,12,10,571.00
2018,03,23,12,11,571.00
2018,03,23,12,12,571.00
2018,03,23,12,13,592.20
2018,03,23,12,14,624.00
2018,03,23,12,15,515.10
2018,03,23,12,16,466.80
2018,03,23,12,17,567.80
2018,03,23,12,18,605.00
2018,03,23,12,19,439.70
2018,03,23,12,20,357.00
2018,03,23,12,21,651.00
2018,03,23,12,22,779.00
2018,03,23,12,23,772.50
2018,03,23,12,24,788.00
2018,03,23,12,25,791.00
2018,03,23,12,26,691.20
2018,03,23,12,27,723.80
2018,03,23,12,28,779.10
2018,03,23,12,29,788.80
2018,03,23,12,30,738.50
2018,03,23,12,31,752.00
2018,03,23,12,32,784.40
2018,03,23,12,33,821.00
2018,03,23,12,34,713.00
2018,03,23,12,35,497.00
2018,03,23,12,36,527.50
2018,03,23,12,37,557.70
2018,03,23,12,38,547.50
2018,03,23,12,39,561.00
2018,03,23,12,40,504.00
2018,03,23,12,41,491.20
2018,03,23,12,42,551.50
2018,03,23,12,43,575.00
2018,03,23,12,44,430.50
2018,03,23,12,45,351.60
2018,03,23,12,46,339.00
2018,03,23,12,47,406.70
2018,03,23,12,48,418.00
2018,03,23,12,49,418.00
2018,03,23,12,50,968.80
2018,03,23,12,51,909.90
2018,03,23,12,52,918.00
2018,03,23,12,53,918.00
2018,03,23,12,54,858.00
2018,03,23,12,55,582.20
2018,03,23,12,56,517.00
2018,03,23,12,57,493.20
2018,03,23,12,58,442.40
2018,03,23,12,59,413.00
2018,03,23,13,00,464.30
2018,03,23,13,01,523.20
2018,03,23,13,02,521.10
2018,03,23,13,03,511.70
2018,03,23,13,04,526.20
2018,03,23,13,05,489.70
2018,03,23,13,06,401.80
2018,03,23,13,07,408.40
2018,03,23,13,08,473.70
2018,03,23,13,09,460.10
2018,03,23,13,10,455.00
2018,03,23,13,11,520.50
2018,03,23,13,12,490.00
2018,03,23,13,13,406.00
2018,03,23,13,14,401.80
2018,03,23,13,15,359.00
2018,03,23,13,16,334.10
2018,03,23,13,17,347.70
2018,03,23,13,18,341.20
2018,03,23,13,19,307.40
2018,03,23,13,20,304.60
2018,03,23,13,21,299.50
2018,03,23,13,22,297.00
2018,03,23,13,23,297.00
2018,03,23,13,24,301.70
2018,03,23,13,25,308.80
2018,03,23,13,26,313.90
2018,03,23,13,27,326.10
2018,03,23,13,28,328.70
2018,03,23,13,29,343.40
2018,03,23,13,30,351.50
2018,03,23,13,31,352.00
2018,03,23,13,32,352.80
2018,03,23,13,33,353.00
2018,03,23,13,34,356.80
2018,03,23,13,35,346.50
2018,03,23,13,36,347.60
2018,03,23,13,37,340.00
2018,03,23,13,38,328.90
2018,03,23,13,39,320.00
2018,03,23,13,40,306.60
2018,03,23,13,41,296.10
2018,03,23,13,42,285.40
2018,03,23,13,43,276.70
2018,03,23,13,44,270.10
2018,03,23,13,45,265.00
2018,03,23,13,46,260.40
2018,03,23,13,47,256.40
2018,03,23,13,48,255.00
2018,03,23,13,49,256.70
2018,03,23,13,50,264.60
2018,03,23,13,51,283.00
2018,03,23,13,52,308.60
2018,03,23,13,53,349.00
2018,03,23,13,54,391.20
2018,03,23,13,55,477.10
2018,03,23,13,56,525.30
2018,03,23,13,57,485.30
2018,03,23,13,58,489.40
2018,03,23,13,59,498.20
2018,03,23,14,00,671.20
2018,03,23,14,01,745.00
2018,03,23,14,02,745.00
2018,03,23,14,03,745.00
2018,03,23,14,04,658.20
2018,03,23,14,05,405.30
2018,03,23,14,06,368.10
2018,03,23,14,07,324.30
2018,03,23,14,08,294.40
2018,03,23,14,09,281.10
2018,03,23,14,10,274.20
2018,03,23,14,11,258.70
2018,03,23,14,12,246.80
2018,03,23,14,13,250.60
2018,03,23,14,14,263.00
2018,03,23,14,15,274.90
2018,03,23,14,16,280.20
2018,03,23,14,17,277.00
2018,03,23,14,18,268.40
2018,03,23,14,19,256.80
2018,03,23,14,20,255.00
2018,03,23,14,21,237.80
2018,03,23,14,22,236.10
2018,03,23,14,23,240.40
2018,03,23,14,24,258.90
2018,03,23,14,25,304.70
2018,03,23,14,26,371.20
2018,03,23,14,27,439.00
2018,03,23,14,28,455.30
2018,03,23,14,29,525.70
2018,03,23,14,30,591.90
2018,03,23,14,31,626.00
2018,03,23,14,32,669.80
2018,03,23,14,33,723.50
2018,03,23,14,34,801.50
2018,03,23,14,35,866.70
2018,03,23,14,36,844.80
2018,03,23,14,37,821.00
2018,03,23,14,38,821.00
2018,03,23,14,39,821.00
2018,03,23,14,40,821.00
2018,03,23,14,41,350.10
2018,03,23,14,42,259.20
2018,03,23,14,43,241.90
2018,03,23,14,44,228.90
2018,03,23,14,45,213.90
2018,03,23,14,46,210.80
2018,03,23,14,47,209.00
2018,03,23,14,48,209.30
2018,03,23,14,49,211.70
2018,03,23,14,50,215.50
2018,03,23,14,51,221.80
2018,03,23,14,52,231.20
2018,03,23,14,53,245.20
2018,03,23,14,54,265.80
2018,03,23,14,55,308.10
2018,03,23,14,56,339.00
2018,03,23,14,57,339.00
2018,03,23,14,58,339.00
2018,03,23,14,59,335.90
2018,03,23,15,00,324.70
2018,03,23,15,01,337.50
2018,03,23,15,02,345.00
2018,03,23,15,03,345.00
2018,03,23,15,04,345.00
2018,03,23,15,05,345.00
2018,03,23,15,06,345.00
2018,03,23,15,07,791.00
2018,03,23,15,08,891.00
2018,03,23,15,09,891.00
2018,03,23,15,10,891.00
2018,03,23,15,11,892.60
2018,03,23,15,12,900.00
2018,03,23,15,13,788.20
2018,03,23,15,14,340.40
2018,03,23,15,15,316.90
2018,03,23,15,16,309.50
2018,03,23,15,17,363.00
2018,03,23,15,18,370.70
2018,03,23,15,19,385.00
2018,03,23,15,20,385.00
2018,03,23,15,21,385.00
2018,03,23,15,22,385.00
2018,03,23,15,23,307.70
2018,03,23,15,24,264.10
2018,03,23,15,25,250.00
2018,03,23,15,26,238.80
2018,03,23,15,27,237.00
2018,03,23,15,28,266.10
2018,03,23,15,29,271.00
2018,03,23,15,30,683.30
2018,03,23,15,31,705.00
2018,03,23,15,32,703.40
2018,03,23,15,33,686.90
2018,03,23,15,34,672.30
2018,03,23,15,35,664.80
2018,03,23,15,36,695.20
2018,03,23,15,37,684.00
2018,03,23,15,38,686.30
2018,03,23,15,39,689.40
2018,03,23,15,40,678.90
2018,03,23,15,41,657.70
2018,03,23,15,42,630.70
2018,03,23,15,43,594.00
2018,03,23,15,44,576.70
2018,03,23,15,45,573.50
2018,03,23,15,46,631.00
2018,03,23,15,47,638.50
2018,03,23,15,48,616.50
2018,03,23,15,49,612.00
2018,03,23,15,50,612.00
2018,03,23,15,51,226.10
2018,03,23,15,52,172.50
2018,03,23,15,53,174.00
2018,03,23,15,54,194.30
2018,03,23,15,55,579.30
2018,03,23,15,56,570.20
2018,03,23,15,57,557.90
2018,03,23,15,58,626.80
2018,03,23,15,59,603.50
2018,03,23,16,00,562.70
2018,03,23,16,01,513.00
2018,03,23,16,02,562.10
2018,03,23,16,03,607.60
2018,03,23,16,04,631.00
2018,03,23,16,05,631.00
2018,03,23,16,06,575.00
2018,03,23,16,07,537.10
2018,03,23,16,08,542.80
2018,03,23,16,09,540.00
2018,03,23,16,10,540.00
2018,03,23,16,11,540.00
2018,03,23,16,12,540.00
2018,03,23,16,13,362.40
2018,03,23,16,14,263.60
2018,03,23,16,15,268.30
2018,03,23,16,16,307.10
2018,03,23,16,17,360.60
2018,03,23,16,18,389.30
2018,03,23,16,19,361.00
2018,03,23,16,20,351.60
2018,03,23,16,21,335.40
2018,03,23,16,22,307.00
2018,03,23,16,23,264.80
2018,03,23,16,24,277.00
2018,03,23,16,25,245.00
2018,03,23,16,26,232.00
2018,03,23,16,27,330.10
2018,03,23,16,28,485.00
2018,03,23,16,29,507.10
2018,03,23,16,30,489.00
2018,03,23,16,31,489.00
2018,03,23,16,32,297.90
2018,03,23,16,33,152.10
2018,03,23,16,34,126.00
2018,03,23,16,35,110.00
2018,03,23,16,36,101.10
2018,03,23,16,37,95.80
2018,03,23,16,38,90.50
2018,03,23,16,39,94.80
2018,03,23,16,40,101.90
2018,03,23,16,41,99.80
2018,03,23,16,42,97.20
2018,03,23,16,43,89.40
2018,03,23,16,44,85.60
2018,03,23,16,45,83.80
2018,03,23,16,46,83.00
2018,03,23,16,47,83.00
2018,03,23,16,48,83.00
2018,03,23,16,49,83.00
2018,03,23,16,50,83.00
2018,03,23,16,51,83.00
2018,03,23,16,52,83.60
2018,03,23,16,53,85.10
2018,03,23,16,54,87.30
2018,03,23,16,55,89.40
2018,03,23,16,56,93.70
2018,03,23,16,57,98.80
2018,03,23,16,58,104.20
2018,03,23,16,59,112.70
2018,03,23,17,00,121.70
2018,03,23,17,01,145.60
2018,03,23,17,02,165.00
2018,03,23,17,03,233.20
2018,03,23,17,04,313.40
2018,03,23,17,05,362.20
2018,03,23,17,06,423.20
2018,03,23,17,07,421.60
2018,03,23,17,08,456.20
2018,03,23,17,09,380.00
2018,03,23,17,10,372.50
2018,03,23,17,11,350.40
2018,03,23,17,12,314.20
2018,03,23,17,13,262.70
2018,03,23,17,14,217.00
2018,03,23,17,15,188.60
2018,03,23,17,16,182.70